Previsão horária em Abin

Hoje, 12 Abril, Segunda-feira

Tempo Temperatura Precipitação Vento Pressão Humidade
00:00 +5°C° 0 mm 3 m/s 755 mmHg 69%
01:00 +5°C° 0 mm 3 m/s 755 mmHg 71%
02:00 +5°C° 0 mm 3 m/s 755 mmHg 72%
03:00 +4°C° 0 mm 3 m/s 755 mmHg 71%
04:00 +4°C° 0 mm 3 m/s 755 mmHg 70%
05:00 +4°C° 0 mm 4 m/s 755 mmHg 70%
06:00 +5°C° 0 mm 4 m/s 754 mmHg 64%
07:00 +6°C° 0 mm 5 m/s 754 mmHg 59%
08:00 +7°C° 0 mm 6 m/s 754 mmHg 55%
09:00 +8°C° 0 mm 5 m/s 754 mmHg 60%
10:00 +9°C° 0 mm 5 m/s 753 mmHg 65%
11:00 +10°C° 0 mm 5 m/s 753 mmHg 70%
12:00 +12°C° 0 mm 5 m/s 753 mmHg 68%
13:00 +13°C° 0 mm 5 m/s 752 mmHg 66%
14:00 +14°C° 0 mm 5 m/s 752 mmHg 64%
15:00 +14°C° 0 mm 5 m/s 752 mmHg 66%
16:00 +14°C° 0 mm 4 m/s 751 mmHg 69%
17:00 +14°C° 0 mm 4 m/s 751 mmHg 71%
18:00 +13°C° 0 mm 4 m/s 751 mmHg 75%
19:00 +12°C° 0 mm 4 m/s 751 mmHg 79%
20:00 +11°C° 0 mm 4 m/s 750 mmHg 83%
21:00 +11°C° 0 mm 4 m/s 750 mmHg 80%
22:00 +11°C° 0 mm 4 m/s 750 mmHg 77%
23:00 +11°C° 0 mm 4 m/s 750 mmHg 73%

Amanhã, 13 Abril, Terça-feira

Tempo Temperatura Precipitação Vento Pressão Humidade
00:00 +10°C° 0 mm 4 m/s 750 mmHg 76%
01:00 +10°C° 0 mm 4 m/s 750 mmHg 79%
02:00 +9°C° 0 mm 3 m/s 750 mmHg 81%
03:00 +9°C° 0 mm 3 m/s 750 mmHg 82%
04:00 +8°C° 0 mm 3 m/s 750 mmHg 83%
05:00 +8°C° 0 mm 3 m/s 750 mmHg 84%
06:00 +10°C° 0 mm 3 m/s 750 mmHg 77%
07:00 +12°C° 0 mm 4 m/s 750 mmHg 69%
08:00 +13°C° 0 mm 4 m/s 750 mmHg 62%
09:00 +15°C° 0 mm 5 m/s 750 mmHg 57%
10:00 +16°C° 0 mm 5 m/s 750 mmHg 52%
11:00 +19°C° 0 mm 6 m/s 750 mmHg 47%
12:00 +20°C° 0 mm 6 m/s 750 mmHg 44%
13:00 +20°C° 0 mm 6 m/s 750 mmHg 41%
14:00 +21°C° 0 mm 6 m/s 749 mmHg 38%
15:00 +20°C° 0 mm 5 m/s 749 mmHg 40%
16:00 +19°C° 0 mm 5 m/s 749 mmHg 42%
17:00 +18°C° 0 mm 4 m/s 749 mmHg 44%
18:00 +17°C° 0 mm 4 m/s 748 mmHg 48%
19:00 +14°C° 0 mm 4 m/s 748 mmHg 53%
20:00 +13°C° 0 mm 4 m/s 748 mmHg 57%
21:00 +13°C° 0 mm 4 m/s 748 mmHg 59%
22:00 +12°C° 0 mm 4 m/s 748 mmHg 61%
23:00 +12°C° 0 mm 4 m/s 748 mmHg 63%

Depois de amanhã, 14 Abril, Quarta-feira

Tempo Temperatura Precipitação Vento Pressão Humidade
00:00 +11°C° 0 mm 4 m/s 748 mmHg 64%
01:00 +11°C° 0 mm 4 m/s 748 mmHg 66%
02:00 +10°C° 0 mm 4 m/s 748 mmHg 68%
03:00 +10°C° 0 mm 3 m/s 747 mmHg 70%
04:00 +10°C° 0 mm 3 m/s 747 mmHg 72%
05:00 +10°C° 0 mm 3 m/s 747 mmHg 75%
06:00 +11°C° 0 mm 3 m/s 747 mmHg 71%
07:00 +12°C° 0 mm 4 m/s 747 mmHg 67%
08:00 +13°C° 0 mm 4 m/s 747 mmHg 63%
09:00 +14°C° 0 mm 4 m/s 747 mmHg 57%
10:00 +17°C° 0 mm 4 m/s 746 mmHg 50%
11:00 +18°C° 0 mm 4 m/s 746 mmHg 43%
12:00 +19°C° 0 mm 4 m/s 746 mmHg 40%
13:00 +19°C° 0 mm 5 m/s 746 mmHg 37%
14:00 +19°C° 0 mm 5 m/s 745 mmHg 34%
15:00 +18°C° 0 mm 4 m/s 745 mmHg 38%
16:00 +18°C° 0 mm 3 m/s 745 mmHg 43%
17:00 +17°C° 0 mm 3 m/s 745 mmHg 48%
18:00 +16°C° 0 mm 3 m/s 745 mmHg 51%
19:00 +14°C° 0 mm 2 m/s 745 mmHg 54%
20:00 +13°C° 0 mm 2 m/s 745 mmHg 58%
21:00 +13°C° 0 mm 2 m/s 745 mmHg 61%
22:00 +12°C° 0 mm 2 m/s 745 mmHg 65%
23:00 +11°C° 0 mm 1 m/s 745 mmHg 69%

15 Abril, Quinta-feira

Tempo Temperatura Precipitação Vento Pressão Humidade
00:00 +11°C° 0 mm 1 m/s 745 mmHg 72%
01:00 +9°C° 0 mm 2 m/s 745 mmHg 75%
02:00 +9°C° 0 mm 2 m/s 745 mmHg 78%
03:00 +9°C° 0 mm 2 m/s 745 mmHg 80%
04:00 +9°C° 0 mm 2 m/s 745 mmHg 81%
05:00 +10°C° 0 mm 1 m/s 745 mmHg 83%
06:00 +11°C° 0 mm 1 m/s 745 mmHg 78%
07:00 +12°C° 0 mm 1 m/s 745 mmHg 74%
08:00 +14°C° 0 mm 2 m/s 745 mmHg 70%
09:00 +14°C° 0 mm 1 m/s 745 mmHg 67%
10:00 +15°C° 0 mm 1 m/s 745 mmHg 64%
11:00 +15°C° 0 mm 1 m/s 745 mmHg 62%
12:00 +15°C° 0.1 mm 2 m/s 745 mmHg 63%
13:00 +15°C° 0.1 mm 2 m/s 745 mmHg 65%
14:00 +15°C° 0.1 mm 2 m/s 745 mmHg 67%
15:00 +14°C° 0.1 mm 2 m/s 745 mmHg 70%
16:00 +14°C° 0.1 mm 1 m/s 744 mmHg 74%
17:00 +13°C° 0.1 mm 1 m/s 744 mmHg 77%
18:00 +13°C° 0 mm 1 m/s 744 mmHg 78%
19:00 +12°C° 0 mm 1 m/s 744 mmHg 80%
20:00 +10°C° 0 mm 2 m/s 744 mmHg 81%
21:00 +10°C° 0.1 mm 2 m/s 744 mmHg 82%
22:00 +10°C° 0.1 mm 2 m/s 744 mmHg 83%
23:00 +10°C° 0.1 mm 2 m/s 744 mmHg 83%

16 Abril, Sexta-feira

Tempo Temperatura Precipitação Vento Pressão Humidade
00:00 +10°C° 0.1 mm 2 m/s 743 mmHg 84%
01:00 +10°C° 0.1 mm 2 m/s 743 mmHg 84%
02:00 +10°C° 0.1 mm 2 m/s 743 mmHg 84%
03:00 +10°C° 0 mm 2 m/s 743 mmHg 85%
04:00 +9°C° 0 mm 2 m/s 743 mmHg 86%
05:00 +10°C° 0 mm 1 m/s 743 mmHg 86%
06:00 +10°C° 0 mm 2 m/s 744 mmHg 85%
07:00 +10°C° 0 mm 2 m/s 744 mmHg 83%
08:00 +12°C° 0 mm 2 m/s 744 mmHg 82%
09:00 +13°C° 0 mm 2 m/s 744 mmHg 74%
10:00 +14°C° 0 mm 3 m/s 745 mmHg 66%
11:00 +17°C° 0 mm 3 m/s 745 mmHg 58%
12:00 +17°C° 0.2 mm 3 m/s 745 mmHg 56%
13:00 +18°C° 0.2 mm 4 m/s 745 mmHg 55%
14:00 +17°C° 0.2 mm 5 m/s 745 mmHg 54%
15:00 +16°C° 0.8 mm 5 m/s 745 mmHg 58%
16:00 +16°C° 0.8 mm 5 m/s 745 mmHg 61%
17:00 +15°C° 0.8 mm 5 m/s 745 mmHg 65%
18:00 +14°C° 1.4 mm 4 m/s 745 mmHg 71%
19:00 +13°C° 1.4 mm 3 m/s 746 mmHg 77%
20:00 +12°C° 1.4 mm 2 m/s 746 mmHg 83%
21:00 +11°C° 0.3 mm 3 m/s 747 mmHg 82%
22:00 +10°C° 0.3 mm 5 m/s 747 mmHg 81%
23:00 +10°C° 0.3 mm 6 m/s 747 mmHg 80%

17 Abril, Sábado

Tempo Temperatura Precipitação Vento Pressão Humidade
00:00 +9°C° 0 mm 6 m/s 747 mmHg 82%
01:00 +8°C° 0 mm 7 m/s 748 mmHg 84%
02:00 +6°C° 0 mm 7 m/s 748 mmHg 86%
03:00 +6°C° 0 mm 7 m/s 748 mmHg 87%
04:00 +5°C° 0 mm 7 m/s 748 mmHg 87%
05:00 +5°C° 0 mm 7 m/s 749 mmHg 88%
06:00 +5°C° 0 mm 7 m/s 749 mmHg 83%
07:00 +6°C° 0 mm 8 m/s 749 mmHg 78%
08:00 +6°C° 0 mm 8 m/s 750 mmHg 73%
09:00 +9°C° 0 mm 8 m/s 750 mmHg 67%
10:00 +10°C° 0 mm 8 m/s 751 mmHg 61%
11:00 +11°C° 0 mm 8 m/s 751 mmHg 55%
12:00 +11°C° 0 mm 8 m/s 751 mmHg 51%
13:00 +11°C° 0 mm 8 m/s 751 mmHg 46%
14:00 +12°C° 0 mm 8 m/s 752 mmHg 42%
15:00 +11°C° 0 mm 8 m/s 752 mmHg 43%
16:00 +11°C° 0 mm 7 m/s 752 mmHg 44%
17:00 +10°C° 0 mm 7 m/s 753 mmHg 46%
18:00 +9°C° 0 mm 6 m/s 753 mmHg 48%
19:00 +8°C° 0 mm 6 m/s 754 mmHg 51%
20:00 +7°C° 0 mm 6 m/s 754 mmHg 53%
21:00 +5°C° 0 mm 6 m/s 755 mmHg 53%
22:00 +4°C° 0 mm 6 m/s 755 mmHg 53%
23:00 +3°C° 0 mm 6 m/s 756 mmHg 53%
Mostrar mais